Location: Dumpton Point
(51.3500°N, 1.4433°E)
Time: 03:50:03
(UTC+00:00)

Vanguard 1 Rocket - All Passes

Search period start: 14 April 2021 00:00
Search period end: 24 April 2021 00:00
Orbit: 653 x 4223 km, 34.3° (Epoch: 12 April)

Date Brightness Start Highest point End Pass type
(mag) Time Alt. Az. Time Alt. Az. Time Alt. Az.
14 Apr - 17:19:58 10° SSW 17:22:17 13° S 17:24:57 10° SSE daylight
14 Apr - 19:45:46 10° SSW 19:46:32 10° SSW 19:47:20 10° S visible
15 Apr - 16:10:37 10° S 16:11:47 11° S 16:13:01 10° SSE daylight
15 Apr - 18:34:04 10° SSW 18:35:41 11° S 18:37:30 10° S daylight
16 Apr - 17:23:36 10° SSW 17:25:02 11° S 17:26:36 10° SSE daylight
17 Apr - 16:13:42 10° S 16:14:30 10° S 16:15:19 10° SSE daylight
23 Apr - 13:57:20 10° SSW 13:58:57 11° S 14:00:27 10° SSE daylight
